Regional Weather Roundup
Issued by NWS

Home | Current Version | Previous Version | Graphics & Text | Print | Product List | Glossary On
Versions: 1 2 3 4 5 6 7 8 9 10 11 12 13 14 15 16 17 18 19 20 21 22 23 24 25 26 27 28 29 30 31 32 33 34 35 36 37 38 39 40 41 42 43 44 45 46 47 48 49 50
000
ASUS43 KLOT 241404
RWRIL

ILLINOIS REGIONAL WEATHER ROUNDUP
NATIONAL WEATHER SERVICE CHICAGO/ROMEOVILLE IL
900 AM CDT MON JUL 24 2017

NOTE: "FAIR" INDICATES FEW OR NO CLOUDS BELOW 12,000 FEET WITH NO
SIGNIFICANT WEATHER AND/OR OBSTRUCTIONS TO VISIBILITY.

* THESE STATIONS ARE NOT UNDER NWS QUALITY CONTROL. THEY ALSO MAY NOT
  REPORT WEATHER SUCH AS PRECIPITATION OR FOG.

ILZ001-002-007-009-015-016-024-241500-
NORTHWEST ILLINOIS

CITY           SKY/WX    TMP DP  RH WIND       PRES   REMARKS
MOLINE         CLOUDY    70  63  78 E9        30.02R
STERLING*      CLOUDY    69  63  81 NE7       30.03R
SAVANNA*       SUNNY     68  59  74 E9        30.04R
$$

ILZ003-004-008-010-011-017-018-241500-
NORTH CENTRAL ILLINOIS

CITY           SKY/WX    TMP DP  RH WIND       PRES   REMARKS
ROCKFORD       PTSUNNY   69  59  70 E10       30.05R
FREEPORT*      MOSUNNY   66  60  78 NE9       30.06R
ROCHELLE*      CLOUDY    68  61  79 E10       30.04R
DE KALB*       CLOUDY    65  60  84 NE13      30.04R
PERU*          CLOUDY   N/A N/A N/A NE10      30.03R
$$

ILZ005-006-012>014-019>023-241500-
NORTHEAST ILLINOIS

CITY           SKY/WX    TMP DP  RH WIND       PRES   REMARKS
CHICAGO-OHARE  PTSUNNY   69  60  73 N14       30.01R
CHICAGO-MIDWAY PTSUNNY   70  60  70 N13       30.00R
AURORA         PTSUNNY   68  61  78 NE12      30.03R
LANSING*       CLOUDY    70  60  70 N14G21    29.99S
JOLIET*        CLOUDY    70  63  78 N8        30.01R
WAUKEGAN       CLOUDY    67  59  75 NE9G18    30.01R
DUPAGE AIRPORT PTSUNNY   68  62  81 N13       30.02R
WHEELING       CLOUDY    68  61  78 NE16G23   30.03R
MORRIS*        MOSUNNY   69  62  77 N3        30.00S
ROMEOVILLE*    CLOUDY    68  59  74 NE10G17   30.01R
NORTHERLY ISL    N/A     69  60  73 N12         N/A
$$

LMZ740>746-241500-
SOUTHERN LAKE MICHIGAN

STATION/POSITION SKY/WX   TEMP    WIND        PRES    VSBY  WAVE
                          AIR SEA DIR/SP/G                  HT/PER
                          (F)     (DEG/KT/KT) (MB)    (MI)  (FT/S)
SOUTHERN BUOY              67 69   20/ 16/ 19 1015.4          5/ 7
WILMETTE HARBOR            68 72   10/ 17/ 21   N/A           6/ 6
HARRISON CRIB              69      20/ 20/ 22   N/A
BURNHAM HARBOR             70                   N/A
CALUMET HARBOR             70     360/ 14/ 17 1015.5R
BURNS HARBOR               70      20/ 18/ 21 1015.6S
MICHIGAN CITY              68      10/ 19/ 22   N/A
MICHIGAN CITY 6N           69 74   30/ 14/ 21   N/A           5/ 7
ST. JOSEPH                 68 74   50/ 16/ 19 1015.3R         5/ 6
$$

ILZ025>027-034>036-040-047-049-050-058-095>099-241500-
WEST-CENTRAL ILLINOIS

CITY           SKY/WX    TMP DP  RH WIND       PRES   REMARKS
QUINCY         SUNNY     74  64  71 NE6       30.01R
GALESBURG*     CLOUDY    70  66  88 NE8       30.02R
MACOMB*        PTSUNNY   67  65  92 NE9       30.03R
JACKSONVILLE*  SUNNY     73  65  75 CALM      29.99R
PITTSFIELD*    SUNNY     73  65  78 N3        30.02R
$$

ILZ028>032-037-038-041>044-048-051>054-059>061-241500-
CENTRAL ILLINOIS

CITY           SKY/WX    TMP DP  RH WIND       PRES   REMARKS
PONTIAC        CLOUDY    69  67  91 NE9       30.02R
BLOOMINGTON    CLOUDY    69  65  86 NE13      30.02R
DECATUR        PTSUNNY   73  67  81 NE9       29.99R
PEORIA         CLOUDY    71  66  84 E10       30.01R
LACON*         CLOUDY    67  64  89 NE6       30.02R
LINCOLN*       CLOUDY    72  68  89 NE8       29.99R
SPRINGFIELD    SUNNY     75  68  78 NE3       29.99R
TAYLORVILLE    MOSUNNY   74  68  82 CALM      29.98S
$$

ILZ033-039-045-046-055>057-062-063-241500-
EAST-CENTRAL ILLINOIS

CITY           SKY/WX    TMP DP  RH WIND       PRES   REMARKS
CHAMPAIGN      CLOUDY    72  66  81 NE9       30.00R
RANTOUL*       CLOUDY    72  67  84 NE8       29.99S
MATTOON        MOSUNNY   74  70  87 NE10      29.97S
PARIS*         MOSUNNY   72  68  89 NE7       29.99S
$$

ILZ079-100>102-241500-
SOUTHWEST ILLINOIS

CITY           SKY/WX    TMP DP  RH WIND       PRES   REMARKS
ALTON          SUNNY     73  68  83 N7        29.98R
BELLEVILLE     SUNNY     77  69  74 N5        29.97R
CAHOKIA*       SUNNY     80  66  62 NE8       29.96R HX  82
SPARTA*        SUNNY     76  69  78 NE5       29.97R
$$

ILZ064>066-069>071-074>076-080>082-084>086-088>090-092>094-241500-
SOUTH-CENTRAL ILLINOIS

CITY           SKY/WX    TMP DP  RH WIND       PRES   REMARKS
CARBONDALE     SUNNY     79  75  87 VRB3      29.95R HX  83
CAIRO*         CLOUDY    77  74  88 S3        29.95R
EFFINGHAM*     SUNNY     76  70  81 N5        29.98R
MARION         MOSUNNY   81  79  94 NW5       29.96R HX  89
MT. VERNON     SUNNY     79  69  71 NE6       29.95R HX  81
CENTRALIA*     SUNNY     79  70  75 NE5       29.95R HX  81
SALEM*         SUNNY     78  69  73 N7        29.96R HX  81
METROPOLIS*    CLOUDY    78  74  89 CALM      29.96R
$$

ILZ067-068-072-073-078-083-087-091-241500-
SOUTHEAST ILLINOIS

CITY           SKY/WX    TMP DP  RH WIND       PRES   REMARKS
LAWRENCEVILLE  SUNNY     78  71  79 N6        29.95R HX  80
FLORA*         SUNNY     79  70  74 N7        29.96R HX  81
FAIRFIELD*     SUNNY     78  71  78 N3        29.94R HX  80
HARRISBURG*    SUNNY     79  74  85 CALM      29.94S HX  83
ROBINSON*      SUNNY     74  69  83 NE6       29.96R
CARMI*         SUNNY     78  74  88 N3        29.94R HX  80
$$

ABBREVIATIONS USED IN REMARKS
   TC - TEMPERATURE IN CELSIUS
  WCI - WIND CHILL INDEX
   HX - HEAT INDEX
  VSB - VISIBILITY
$$





USA.gov is the U.S. government's official web portal to all federal, state and local government web resources and services.